Other Public Products
Issued by NWS Grand Forks, ND

Home | Current Version | Previous Version | Text Only | Print | Product List | Glossary On
Versions: 1 2 3 4 5 6 7 8 9 10 11 12 13 14 15 16 17 18 19 20 21 22 23 24 25 26 27 28 29 30 31 32 33 34 35 36 37 38 39 40 41 42 43 44 45 46 47 48 49 50
000
FPUS83 KFGF 261331
OPUFGF
PRAIRIE TO PINES WEATHER ROUNDUP
NATIONAL WEATHER SERVICE EASTERN NORTH DAKOTA/GRAND FORKS ND
800 AM CDT TUE SEP 26 2017

 **SATELLITE DATA USED TO AUGMENT SKY COVER AT AUTOMATED STATIONS**
 *****  WEATHER ACROSS EASTERN NORTH DAKOTA  *****

CITY           SKY/WX    TMP DP  RH WIND       PRES   REMARKS
GRAND FORKS    RAIN      49  49 100 NW9       30.07R
GRAND FORKS AF LGT RAIN  48  48 100 N8        30.09R
GRAND CITY NWS NOT AVBL
BUXTON           N/A     48  48  99 NW9         N/A
DEVILS LAKE    CLOUDY    45  43  93 NW7       30.11R
FARGO          LGT RAIN  50  50 100 N9        30.03F
WAHPETON ARPT  CLOUDY    50  46  87 NW10      30.04S
$$

 *****  WEATHER ACROSS CENTRAL AND WESTERN NORTH DAKOTA  *****

CITY           SKY/WX    TMP DP  RH WIND       PRES   REMARKS
JAMESTOWN      LGT RAIN  47  46  97 NW8       30.09R
BISMARCK       FAIR      45  45 100 CALM      30.12S
MINOT          CLOUDY    49  45  86 SE3       30.11R
MINOT AFB      CLOUDY    47  45  92 CALM      30.10R
GARRISON         N/A     46  44  93 CALM      30.10S
WILLISTON      CLOUDY    47  45  93 CALM      30.10S
DICKINSON      LGT RAIN  45  44  97 E5        30.07R
HETTINGER      CLOUDY    43  42  97 S3        30.10R
$$

 *****  OTHER OBSERVATIONS NORTHEAST NORTH DAKOTA  *****

CITY           SKY/WX    TMP DP  RH WIND       PRES   REMARKS
WALHALLA       FAIR     N/A N/A N/A NW8       30.11R
LANGDON        CLOUDY    45  45 100 N7        30.11R
CAVALIER       CLOUDY    48  48 100 NW7       30.10R
GRAFTON        CLOUDY    48  48 100 N8        30.10S FOG
CANDO          CLOUDY    43  43 100 N3        30.14R
FORT TOTTEN      N/A     46  45  95 N2        29.95S
ROLLA          CLOUDY    43  43 100 NW3       30.13R
RUGBY          CLOUDY    45  45 100 CALM      30.12R
 ***** THE ABOVE OBSERVATIONS ARE NON NWS ARE NOT QUALITY
        CONTROLLED AND MAY MIS-REPORT RAIN FOR SNOW...
$$

 *****  OTHER OBSERVATIONS SOUTHEAST NORTH DAKOTA *****

CITY           SKY/WX    TMP DP  RH WIND       PRES   REMARKS
COOPERSTOWN      N/A     48  48 100 NW9       30.09R
VALLEY CITY    LGT RAIN  48  48 100 NW7       30.09R
OAKES          NOT AVBL
GWINNER        CLOUDY    48  48 100 NW7       30.07R
SHEYENNE NWR     N/A     49  49 100 NW7       29.95S
BUFFALO          N/A     48  46  93 SW7         N/A
WYNDMERE       NOT AVBL
 ***** THE ABOVE OBSERVATIONS ARE NON NWS ARE NOT QUALITY
       CONTROLLED AND MAY MIS-REPORT RAIN FOR SNOW...
$$

  *****  WEATHER ACROSS NORTHERN MINNESOTA  *****

CITY           SKY/WX    TMP DP  RH WIND       PRES   REMARKS
FLAG ISLAND    CLOUDY    50  46  87 NE6       30.05S
WARROAD        FAIR      52  46  82 NE12G18   30.04F
ROSEAU         LGT RAIN  48  45  87 N8        30.04F
HALLOCK        DRIZZLE   50  48  93 N6        30.07S
THF RVR FALLS  LGT RAIN  48  48 100 N7        30.05S
HALSTAD          N/A     49  48  95 N9          N/A
FOSSTON        DRIZZLE   46  46 100 N8        30.03S
BAUDETTE       LGT RAIN  49  48  97 N8        30.04F
WASKISH        CLOUDY    48  48 100 NE8       30.02R
CROOKSTON      RAIN      50  48  93 N6        30.06S
$$
  *****  WEATHER ACROSS CENTRAL AND WEST MINNESOTA  *****

CITY           SKY/WX    TMP DP  RH WIND       PRES   REMARKS
BEMIDJI        DRIZZLE   48  48  98 N7        30.00S
PARK RAPIDS    LGT RAIN  51  49  92 NW8       29.99R FOG
WADENA         DRIZZLE   50  50 100 NW5       30.00R
DETROIT LAKES  DRIZZLE   50  48  93 NW8       30.03R
MOORHEAD       LGT RAIN  48  48 100 NW5       30.05R
FERGUS FALLS   LGT RAIN  50  50 100 N7        30.02F
ELBOW LAKE     DRIZZLE   50  50 100 N8        30.01F
MORRIS MN      NOT AVBL
STAPLES        DRIZZLE   50  50 100 NW8       29.98R
WHEATON        DRIZZLE   50  48  93 W10       30.06R
$$
  *****  WEATHER ELSEWHERE ACROSS MINNESOTA  *****

CITY           SKY/WX    TMP DP  RH WIND       PRES   REMARKS
DULUTH         LGT RAIN  53  53 100 NE8       29.93S FOG
INTRNTL FALLS  CLOUDY    50  46  86 NE8       30.01F
ELY            RAIN      50  48  93 NE6       29.98R
CLOQUET        LGT RAIN  54  52  94 NE5       29.93F
BRAINERD       LGT RAIN  53  52  96 N9        29.95S FOG
HIBBING        LGT RAIN  50  49  96 NE7       29.96F FOG
ALEXANDRIA     CLOUDY    52  51  97 NW8       30.01R
SAINT CLOUD    CLOUDY    54  54 100 NW8       29.94S
MINNEAPOLIS    CLOUDY    58  58 100 NW5       29.93R
$$

  *****  WEATHER ACROSS SOUTH DAKOTA  *****

CITY           SKY/WX    TMP DP  RH WIND       PRES   REMARKS
SIOUX FALLS    CLOUDY    50  50 100 NW9       30.07R
BROOKINGS      CLOUDY    49  48  97 NW13      30.07R
WATERTOWN      CLOUDY    48  48 100 NW9       30.05R
HURON          CLOUDY    48  47  96 W7        30.11R
SISSETON         N/A     50  49  96 NW14      30.04R
ABERDEEN       CLOUDY    48  48 100 NW7       30.10R
MITCHELL       CLOUDY    49  46  90 NW12      30.12R
PIERRE         FOG       42  41  96 E5        30.11S VSB 3/4
MOBRIDGE       CLOUDY    46  44  93 N5        30.10R
RAPID CITY     CLEAR     37  36  93 SE3       30.10R
$$

  *****  SOME WEATHER IN NEARBY STATES *****

CITY           SKY/WX    TMP DP  RH WIND       PRES   REMARKS
GLASGOW MT     FAIR      37  36  96 E10       30.09R
GREAT FALLS MT FAIR      48  39  71 SW12      30.09S
CHEYENNE WY    FOG       36  35  96 SW6       30.20R VSB<1/4
SCOTTSBLUFF NE FAIR      37  35  92 N3        30.16R
OMAHA NE       CLOUDY    56  52  86 NW12      30.07R
DES MOINES IA  DRIZZLE   67  66  97 W3        29.96R
DAVENPORT IA   FAIR      69  66  90 S3        29.96R FOG
CHICAGO IL     PTSUNNY   72  61  68 S3        29.95S
EAU CLAIRE WI  LGT RAIN  64  63  96 S3        29.90S
LA CROSSE WI   PTSUNNY   68  66  93 SE6       29.91S
$$

  *****  SOME NATIONAL WEATHER *****

CITY           SKY/WX    TMP DP  RH WIND       PRES   REMARKS
LA GUARDIA NY  CLOUDY    71  68  90 NE7       30.05R
RALEIGH NC     CLOUDY    70  68  93 N9        29.95R
ATLANTA GA     FAIR      75  63  66 NE10      30.02R
NEW ORLEANS LA FAIR      78  76  93 E6        29.92R
OKLAHOMA CITY  CLOUDY    68  67  96 N10       29.98R
ALBUQUERQUE NM FAIR      57  49  74 E21G28    30.06R
SALT LAKE CITY FAIR      43  38  82 CALM      30.13S
LOS ANGELES CA FAIR      62  39  42 E5        29.78S
BOISE ID       CLOUDY    51  38  60 SE8       30.13R
SEATTLE WA     FAIR      55  53  93 CALM      30.17R
$$

*** WEATHER ACROSS MANITOBA...SASKATCHEWAN AND ONTARIO ***
                ***ONTARIO***

CITY           SKY/WX    TMP DP  RH WIND       PRES   REMARKS
GERALDTON      LGT RAIN  45  45 100 NE14G22   30.06F VSB 1
THUNDER BAY    LGT RAIN  50  50 100 N3        29.96F FOG
SIOUX LOOKOUT  CLOUDY    46  45  93 E6        30.06F
TORONTO        MOSUNNY   75  66  73 VRB2      30.01S
BIG TROUT LK   CLOUDY    39 N/A N/A NE3       30.22F
PICKLE LAKE    CLOUDY    45  45 100 NE8       30.13F FOG
DRYDEN         LGT RAIN  46  45  93 NE9       30.05F
KENORA         CLOUDY    46  45  93 NE9       30.08F
$$
                *** MANITOBA***

CITY           SKY/WX    TMP DP  RH WIND       PRES   REMARKS
BRANDON        CLOUDY    41  41 100 VRB2      30.14R
DAUPHIN        CLOUDY    34  34 100 SW5       30.13S
ISLAND LAKE    NOT AVBL
PILOT MOUND      N/A     43  39  87 N6          N/A
THE PAS        MOCLDY    45  41  87 S8        30.09S
THOMPSON       MOCLDY    37  36  93 SE3       30.10S
WINNIPEG       DRIZZLE   48  46  93 NE8       30.10F
LYNN LAKE      CLOUDY    46  43  87 S8        29.94F
CHURCHILL      PTCLDY    34  30  86 S9        30.14F
GILLAM         PTCLDY    30  28  93 S6        30.17S WCI  24
$$
                ***SASKATCHEWAN***

CITY           SKY/WX    TMP DP  RH WIND       PRES   REMARKS
ESTEVAN        LGT RAIN  45  45 100 E3        30.11R
KINDERSLEY     MOCLDY    45  34  65 SW3       29.99R
LLOYDMINSTER   MOCLDY    50  46  87 W10       29.95R
PRINCE ALBERT  MOCLDY    46  39  76 S6        30.01S
REGINA         MOCLDY    36  36 100 SE8       30.09R FOG
YORKTON        CLOUDY    45  41  87 S3        30.10S


USA.gov is the U.S. government's official web portal to all federal, state and local government web resources and services.